Bangkok (Suvarnabhumi), Thailand

3:48 AM ICT on December 07, 2019 (GMT +0700)
Bangkok (Suvarnabhumi)

Weather History for VTBS - October, 2019

Change the Weather History Date:

Friday, October 18, 2019

  Actual Average (WUND) Record (WUND)
Temperature  
Mean Temperature 87 °F -  
Max Temperature 95 °F 89 °F - (-1)
Min Temperature 79 °F 73 °F - (-1)
Cooling Degree Days 22    
Growing Degree Days 37 (Base 50)    
Moisture  
Dew Point 73 °F    
Average Humidity 64    
Maximum Humidity 89    
Minimum Humidity 46    
Precipitation  
Precipitation 0.00 in 0.16 in - ()
Sea Level Pressure  
Sea Level Pressure 29.85 in    
Wind  
Wind Speed 7 mph ()    
Max Wind Speed 15 mph    
Max Gust Speed 25 mph    
Visibility 5.7 miles    
Events      
Averages and records for this station are not official NWS values.
T = Trace of Precipitation, MM = Missing Value Source: Averaged Metar Reports

Daily Weather History Graph

Daily Weather History Graph

Search for Another Location

Airport or City:

Astronomy

Oct. 18, 2019 Rise Set
Actual Time 6:06 AM ICT 5:55 PM ICT
Civil Twilight 5:45 AM ICT 6:17 PM ICT
Nautical Twilight 5:20 AM ICT 6:41 PM ICT
Astronomical Twilight 4:55 AM ICT 7:06 PM ICT
Moon 9:21 PM ICT (10/18) 9:36 AM ICT (10/18)
Length of Visible Light 12h 31m
Length of Day
11h 48m
Waning Gibbous, 83% of the Moon is Illuminated
Oct 18
Waning Gibbous
Oct 21
Last Quarter
Oct 28
New
Nov 4
First Quarter
Nov 12
Full

Hourly Weather History & Observations

Time (ICT) Temp. Heat Index Dew Point Humidity Pressure Visibility Wind Dir Wind Speed Gust Speed Precip Events Conditions
12:00 AM 82.4 °F 89.5 °F 75.2 °F 79% 29.89 in 6.2 mi North 3.5 mph - N/A   Mostly Cloudy
12:30 AM 86.0 °F 95.1 °F 75.2 °F 70% 29.89 in 6.2 mi ENE 6.9 mph - N/A   Mostly Cloudy
1:00 AM 82 °F - 77 °F 81% 29.85 in 4 mi Calm Calm - -   Mist
1:00 AM 84.2 °F 92.3 °F 75.2 °F 74% 29.86 in 6.2 mi Variable 2.3 mph - N/A   Mostly Cloudy
1:30 AM 80.6 °F 87.1 °F 77.0 °F 89% 29.86 in 6.2 mi North 2.3 mph - N/A   Mostly Cloudy
2:00 AM 86.0 °F 93.4 °F 73.4 °F 66% 29.86 in 6.2 mi NE 6.9 mph - N/A   Mostly Cloudy
2:30 AM 82.4 °F 89.5 °F 75.2 °F 79% 29.86 in 6.2 mi NNE 5.8 mph - N/A   Mostly Cloudy
3:00 AM 80.6 °F 87.1 °F 77.0 °F 89% 29.83 in 6.2 mi North 4.6 mph - N/A   Mostly Cloudy
3:30 AM 80.6 °F 86.2 °F 75.2 °F 84% 29.83 in 6.2 mi North 5.8 mph - N/A   Mostly Cloudy
4:00 AM 82 °F - 77 °F 81% 29.83 in 2 mi Calm Calm - -   Mist
4:00 AM 80.6 °F 86.2 °F 75.2 °F 84% 29.83 in 6.2 mi North 5.8 mph - N/A   Mostly Cloudy
4:30 AM 80.6 °F 86.2 °F 75.2 °F 84% 29.83 in 6.2 mi North 5.8 mph - N/A   Partly Cloudy
5:00 AM 80.6 °F 86.2 °F 75.2 °F 84% 29.83 in 6.2 mi North 5.8 mph - N/A   Partly Cloudy
5:30 AM 80.6 °F 86.2 °F 75.2 °F 84% 29.83 in 6.2 mi NE 9.2 mph - N/A   Partly Cloudy
6:00 AM 82.4 °F 88.2 °F 73.4 °F 74% 29.86 in 6.2 mi ENE 8.1 mph - N/A   Partly Cloudy
6:30 AM 82.4 °F 87.2 °F 71.6 °F 70% 29.86 in 6.2 mi ENE 8.1 mph - N/A   Partly Cloudy
7:00 AM 82 °F - 77 °F 81% 29.85 in 4 mi Calm Calm - -   Mist
7:00 AM 82.4 °F 86.3 °F 69.8 °F 66% 29.86 in 6.2 mi ENE 10.4 mph - N/A   Partly Cloudy
7:30 AM 84.2 °F 88.4 °F 69.8 °F 62% 29.86 in - ENE 13.8 mph - N/A   Clear
8:30 AM 86.0 °F 90.4 °F 69.8 °F 58% 29.89 in - ENE 15.0 mph - N/A   Clear
9:30 AM 87.8 °F 92.6 °F 69.8 °F 55% 29.89 in - ENE 11.5 mph - N/A   Clear
10:00 AM 88 °F - 76 °F 60% 29.89 in 4 mi NE 11.5 mph - -   Mist
10:00 AM 87.8 °F 92.6 °F 69.8 °F 55% 29.92 in 6.2 mi East 11.5 mph - N/A   Partly Cloudy
10:30 AM 87.8 °F 92.6 °F 69.8 °F 55% 29.92 in 6.2 mi East 13.8 mph - N/A   Partly Cloudy
11:00 AM 89.6 °F 93.4 °F 68.0 °F 49% 29.89 in 6.2 mi ENE 13.8 mph 25.3 mph N/A   Partly Cloudy
11:30 AM 89.6 °F 94.7 °F 69.8 °F 52% 29.89 in 6.2 mi ENE 12.7 mph 24.2 mph N/A   Partly Cloudy
12:00 PM 91.4 °F 96.8 °F 69.8 °F 49% 29.86 in 6.2 mi ENE 12.7 mph - N/A   Partly Cloudy
12:30 PM 91.4 °F 96.8 °F 69.8 °F 49% 29.86 in 6.2 mi ENE 13.8 mph - N/A   Partly Cloudy
1:00 PM 94 °F - 76 °F 47% 29.84 in 5 mi East 6.9 mph - -   Haze
1:00 PM 91.4 °F 96.8 °F 69.8 °F 49% 29.86 in 6.2 mi NE 15.0 mph - N/A   Partly Cloudy
1:30 PM 93.2 °F 100.5 °F 71.6 °F 49% 29.83 in 6.2 mi NE 11.5 mph - N/A   Partly Cloudy
3:00 PM 93.2 °F 98.8 °F 69.8 °F 46% 29.80 in 5.6 mi ENE 12.7 mph - N/A   Partly Cloudy
3:30 PM 93.2 °F 98.8 °F 69.8 °F 46% 29.80 in 5.6 mi ENE 11.5 mph - N/A   Partly Cloudy
4:00 PM 94 °F - 76 °F 47% 29.79 in 5 mi NNE 4.6 mph - -   Haze
4:00 PM 93.2 °F 100.5 °F 71.6 °F 49% 29.80 in 5.6 mi ENE 10.4 mph - N/A   Partly Cloudy
4:30 PM 91.4 °F 98.4 °F 71.6 °F 52% 29.80 in 5.6 mi ENE 11.5 mph - N/A   Partly Cloudy
5:30 PM 91.4 °F 98.4 °F 71.6 °F 52% 29.80 in 5.6 mi NE 10.4 mph - N/A   Partly Cloudy
6:00 PM 89.6 °F 96.2 °F 71.6 °F 55% 29.80 in 5.6 mi ENE 9.2 mph - N/A   Partly Cloudy
6:30 PM 89.6 °F 98.2 °F 73.4 °F 59% 29.83 in 6.2 mi NE 9.2 mph - N/A   Partly Cloudy
7:00 PM 89 °F - 77 °F 61% 29.83 in 4 mi ENE 5.8 mph - -   Mist
7:00 PM 89.6 °F 98.2 °F 73.4 °F 59% 29.83 in 6.2 mi ENE 6.9 mph - N/A   Partly Cloudy
7:30 PM 87.8 °F 95.6 °F 73.4 °F 62% 29.86 in 6.2 mi ENE 4.6 mph - N/A   Partly Cloudy
8:00 PM 87.8 °F 97.6 °F 75.2 °F 66% 29.86 in 6.2 mi ENE 4.6 mph - N/A   Partly Cloudy
9:00 PM 87.8 °F 95.6 °F 73.4 °F 62% 29.89 in 6.2 mi East 9.2 mph - N/A   Partly Cloudy
9:30 PM 87.8 °F 93.8 °F 71.6 °F 58% 29.89 in 6.2 mi ENE 10.4 mph - N/A   Partly Cloudy
10:00 PM 86 °F - 76 °F 65% 29.89 in 2 mi ENE 8.1 mph - -   Mist
10:00 PM 86.0 °F 91.8 °F 71.6 °F 62% 29.89 in 6.2 mi ENE 10.4 mph - N/A   Partly Cloudy
10:30 PM 86.0 °F 91.8 °F 71.6 °F 62% 29.89 in 6.2 mi ENE 13.8 mph - N/A   Partly Cloudy
11:00 PM 86.0 °F 91.8 °F 71.6 °F 62% 29.89 in 6.2 mi ENE 11.5 mph 23.0 mph N/A   Partly Cloudy
11:30 PM 86.0 °F 91.8 °F 71.6 °F 62% 29.89 in 6.2 mi NE 10.4 mph - N/A   Partly Cloudy